Regional Weather Roundup
Issued by NWS Huntsville, AL

Home | Current Version | Previous Version | Text Only | Print | Product List | Glossary On
Versions: 1 2 3 4 5 6 7 8 9 10 11 12 13 14 15 16 17 18 19 20 21 22 23 24 25 26 27 28 29 30 31 32 33 34 35 36 37 38 39 40 41 42 43 44 45 46 47 48 49 50
000
ASUS44 KHUN 291210
RWRHUN

WEATHER ROUNDUP FOR THE TENNESSEE VALLEY
NATIONAL WEATHER SERVICE HUNTSVILLE AL
700 AM CDT THU JUN 29 2017

ALZ001>004-291300-
NORTHWEST ALABAMA

CITY           SKY/WX    TMP DP  RH WIND       PRES   REMARKS
COURTLAND HCN    N/A     72 N/A N/A E3          N/A
RUSSELLVILLE     N/A     72 N/A N/A MISG        N/A
SHOALS AIRPORT SUNNY     71  67  87 SE3       30.09R
6HR MIN TEMP:  67; 6HR MAX TEMP:  72;

SHOALS TVA RES   N/A     70 N/A N/A MISG        N/A
$$

ALZ005>007-016-291300-
NORTH CENTRAL ALABAMA

CITY           SKY/WX    TMP DP  RH WIND       PRES   REMARKS
CULLMAN AG STN   N/A     72 N/A N/A E5          N/A
DECATUR AP     SUNNY     74  68  81 SE7       30.10R
6HR MIN TEMP:  67; 6HR MAX TEMP:  74;

HUNTSVILLE AP  PTSUNNY   74  69  85 SE5       30.10S
6HR MIN TEMP:  72; 6HR MAX TEMP:  76;

MERIDIANVILLE  MOSUNNY   72  64  78 CALM      30.11R
REDSTONE ARSN  PTSUNNY   74  68  81 S7        30.10R
VINEMONT AP    CLOUDY    72  67  84 E3        30.14R
$$

ALZ008>010-291300-
NORTHEAST ALABAMA

CITY           SKY/WX    TMP DP  RH WIND       PRES   REMARKS
ALBERTVILLE    CLOUDY    72  72 100 SE3       30.13R
FORT PAYNE     CLOUDY    72  63  73 SE5       30.14R
SCOTTSBORO AP  PTSUNNY   75  68  78 S5        30.13S
SCOTTSBORO HCN   N/A     73 N/A N/A MISG        N/A
VALLEY HEAD      N/A     72 N/A N/A MISG        N/A
$$

TNZ076-096-097-291300-
SOUTHEASTERN MIDDLE TENNESSEE

CITY           SKY/WX    TMP DP  RH WIND       PRES   REMARKS
TULLAHOMA      SUNNY     72  64  78 S7        30.13R
WINCHESTER     MOSUNNY   73  66  78 SE8       30.13R
$$

...SURROUNDING SITES...

CITY           SKY/WX    TMP DP  RH WIND       PRES   REMARKS
ATLANTA        PTSUNNY   72  68  87 E7        30.17S
ANNISTON       CLOUDY    75  69  81 NE6       30.13S
BIRMINGHAM     CLOUDY    76  70  82 SE6       30.12S
CHATTANOOGA    PTSUNNY   73  65  75 SE6       30.15R
CORINTH        CLOUDY    72  68  88 SE5       30.05S
DALTON         CLOUDY    72  68  88 SE5       30.16R
GADSDEN        CLOUDY    74  71  91 SE3       30.12S
GOLDEN TRNGL   CLOUDY    73  66  78 SE9       30.01S
JACKSON TN     SUNNY     72  70  93 S7        30.04R
MEMPHIS        MOSUNNY   73  71  93 S12       30.01S
NASHVILLE      PTSUNNY   73  65  75 SE3       30.09R
OXFORD MS      FAIR      70  68  94 SE7       30.05S
ROME           CLOUDY    73  69  87 CALM      30.15S
SAVANNAH       SUNNY     73  70  88 S6        30.05S
SELMER         MOSUNNY   72  68  88 VRB6G13   30.05S
TUPELO         CLOUDY    73  69  87 SE6       30.05R
TUSCALOOSA     LGT RAIN  74  73  97 SE7       30.07S FOG
$$

...GULF COAST WEATHER...

CITY           SKY/WX    TMP DP  RH WIND       PRES   REMARKS
GULFPORT       LGT RAIN  75  73  93 SW3       30.02R
PASCAGOULA     LGT RAIN  74  72  93 CALM      30.02F
MOBILE         LGT RAIN  74  72  93 N3        30.04F FOG
GULF SHORES    DRIZZLE   77  77 100 S3        30.03R
PENSACOLA      LGT RAIN  80  74  81 S8        30.03S
DESTIN         PTSUNNY   79  32  18 E5        30.05S
PANAMA CITY    PTSUNNY   76  75  96 E5        30.06S
APPALACHICOLA  PTSUNNY   81  81 100 SE6       30.06R HX  92
$$




USA.gov is the U.S. government's official web portal to all federal, state and local government web resources and services.